STARLINK-32442, 61729

Orbit data source: Space-Track

STARLINK-32442, 61729 is a payload satellite owned by SpaceX/Seattle (US) in LEO that was launched on Wed, 30 Oct 2024 UTC via an FALCON 9 launch vehicle from the Air Force Eastern Test Range (AFETR). Payload-class satellites include a variety of spacecraft equipped with specific instruments for various scientific and technological missions. These include communications satellites like Starlink; space stations such as the ISS; scientific satellites like the Hubble; Earth observation satellites from companies like Planet Labs, Umbra, and HawkEye 360; GPS; miniature CubeSats for education and research; and military/defense satellites.

Loading next visibility...
Identifier
61729, 2024-196Y
Orbit
LEO
Country
Flag of USUS
Related business
Manufacturer
SpaceX/Seattle
Mission
Operational Commercial Communications
Bus & Motor
STARLINK V2M, Unknown motor
Mass
730 kg wet, ~700 kg dry
Launch date (UTC)
2024-10-30 (2 years ago)
Launch vehicle
FALCON 9
Launch site
Air Force Eastern Test Range (AFETR)
Object type
Payload
Rocket body
Debris
Shape & HBR
Box + 2 Pan, 17.7 m
Radar Cross Section
33.884 m², Large (>1 m²)

Expand to show TLE details & history
Last TLE update: 10 hours ago

TLE from 10 hours ago
0 STARLINK-32442
1 61729U 24196Y   26127.58047862  .00001778  00000-0  72140-4 0  9996
2 61729  53.1593 187.7508 0001179  83.2228 276.8907 15.30198329 86174
Epoch: 2026-05-07T13:55Z
TLE epoch observation values (Epoch: 2026-05-07T13:55:53.352Z)
Latitude
-0.00003°
Longitude
113.35391°
Altitude
476.023 km
Speed
7.629 km/s
True Right ascension
12h 31m 00s
True Declination
0° 00' 00"
Sunlit
Object was in full shadow at epoch
Visualization orbit readout
Latitude
Unknown
Longitude
Unknown
Altitude
Unknown
Speed
Unknown
Apparent Right ascension
Unknown
Apparent Declination
Unknown
Sunlit
N/A
Visualization observer readout
Local Sidereal Time
08:12:02
Azimuth
Unknown
Elevation
Unknown
Doppler factor
Unknown
Orbital elements
Apogee altitude
476.285 km
Perigee altitude
474.669 km
Semi-major axis
6,853.614 km
Eccentricity
0.00012
Inclination
53.1593°
RAAN
187.7508°
Arg. of periapsis
83.2228°
True anomaly
276.87729°
Mean anomaly
276.8907°
Eccentric anomaly
276.88399°
Mean motion
3.82528 °/min
Orbital period
94.11 mins
BSTAR
0.00007214
Loading maneuver chart data...
Computing Atmospheric mass density...
Loading historical data...
Loading historical data...
Loading historical data...
Loading historical data...
Loading historical data...
Loading historical data...
Loading historical data...

Documentation

Showing up to 5 results
|